Flag for Switzerland Weather past 2 weeks in Lugano, Switzerland

Now
39 °F

Chilly.


Feels Like: 37 °F
Forecast: 33 / 53 °F
Wind: 3 mph from North

Location: Lugano Airport

Current Time: Dec 19, 2014 at 10:49:46 PM

Latest Report: Dec 19, 2014 at 10:20 PM


Visibility: 4 mi

Pressure: 30.18 "Hg

Humidity: 100%

Dew point: 39 °F

Location of LuganoLocation

Historic Weather in Lugano — Graph

°F

Lugano temperature yesterday

Maximum temperature yesterday: 50 °F (at 2:20 PM)
Minimum temperature yesterday: 32 °F (at 3:50 AM)
Average temperature yesterday: 40 °F

Past Weeks' High & Low Weather Summary

 TemperatureHumidityPressure
High54 °F (Dec 6, 12:50 PM)100% (Dec 4, 11:50 PM)30.24 "Hg (Dec 4, 11:50 PM)
Low27 °F (Dec 11, 6:20 AM)26% (Dec 9, 2:50 PM)29.83 "Hg (Dec 16, 3:50 PM)
Average43 °F87%30.06 "Hg
* Reported Dec 4 9:20 PM — Dec 19 9:20 PM, Lugano, Weather by CustomWeather, © 2014

Note: Actual official high and low records may vary slightly from our data, if they occured in-between our weather recording intervals... More about our weather records

Advertising

Lugano weather history for previous 24 hours

 ConditionsComfort  
Time TempWeatherWind HumidityBarometerVisibility
9:20 PM
Dec 19
39 °FClear.2 mph100%30.18 "Hg10 mi
8:50 PM39 °FClear.1 mph100%30.18 "Hg10 mi
8:20 PM41 °FClear.1 mph100%30.18 "Hg10 mi
7:50 PM43 °FClear.1 mph100%30.18 "Hg10 mi
7:20 PM43 °FClear.1 mph93%30.18 "Hg10 mi
6:50 PM43 °FClear.2 mph93%30.15 "Hg10 mi
6:20 PM45 °FClear.1 mph93%30.15 "Hg10 mi
5:50 PM46 °FClear.2 mph93%30.15 "Hg10 mi
5:20 PM46 °FClear.No wind93%30.15 "Hg10 mi
4:50 PM48 °FClear.1 mph87%30.15 "Hg10 mi
4:20 PM48 °FSunny.No wind82%30.15 "Hg10 mi
3:50 PM50 °FSunny.2 mph76%30.15 "Hg10 mi
3:20 PM52 °FSunny.1 mph72%30.15 "Hg10 mi
2:50 PM52 °FSunny.3 mph67%30.15 "Hg10 mi
2:20 PM52 °FSunny.2 mph67%30.15 "Hg10 mi
1:50 PM50 °FSunny.1 mph71%30.15 "Hg10 mi
1:20 PM50 °FSunny.3 mph76%30.18 "Hg10 mi
12:50 PM48 °FSunny.2 mph76%30.18 "Hg10 mi
12:20 PM48 °FSunny.3 mph76%30.21 "Hg10 mi
11:50 AM46 °FSunny.2 mph82%30.21 "Hg10 mi
11:20 AM46 °FSunny.1 mph82%30.21 "Hg10 mi
10:50 AM45 °FSunny.1 mph81%30.21 "Hg10 mi
10:20 AM39 °FSunny.1 mph100%30.21 "Hg10 mi
9:50 AM36 °FSunny.1 mph100%30.21 "Hg10 mi
9:20 AM34 °FSunny.3 mph100%30.21 "Hg10 mi
8:50 AM32 °FSunny.2 mph100%30.21 "Hg10 mi
8:20 AM34 °FSunny.1 mph100%30.21 "Hg10 mi
7:50 AM32 °FClear.2 mph100%30.21 "Hg10 mi
7:20 AM34 °FClear.2 mph100%30.21 "Hg10 mi
6:50 AM34 °FClear.3 mph100%30.21 "Hg10 mi
6:20 AM34 °FClear.1 mph93%30.21 "Hg10 mi
5:50 AM32 °FChilly.2 mph100%30.18 "Hg4 mi
5:20 AM32 °FFog.1 mph100%30.18 "Hg0 mi
4:20 AM34 °FClear.3 mph100%30.18 "Hg10 mi
3:50 AM34 °FChilly.3 mph100%30.21 "Hg4 mi
3:20 AM34 °FChilly.3 mph100%30.21 "Hg6 mi
2:50 AM34 °FChilly.1 mph100%30.21 "Hg3 mi
2:20 AM36 °FClear.1 mph100%30.21 "Hg10 mi
1:50 AM34 °FClear.3 mph100%30.21 "Hg10 mi
1:20 AM36 °FChilly.1 mph100%30.21 "Hg6 mi
12:50 AM37 °FClear.3 mph93%30.21 "Hg10 mi
12:20 AM36 °FChilly.5 mph100%30.21 "Hg5 mi
11:50 PM
Dec 18
39 °FClear.5 mph100%30.21 "Hg10 mi
11:20 PM37 °FClear.3 mph93%30.18 "Hg10 mi
10:50 PM39 °FClear.3 mph93%30.21 "Hg10 mi
10:20 PM37 °FClear.2 mph100%30.21 "Hg10 mi
Weather by CustomWeather, © 2014

See weather overviewHow to use our weather pages